Time,TemperatureF,DewpointF,PressureIn,WindDirection,WindDirectionDegrees,WindSpeedMPH,WindSpeedGustMPH,Humidity,HourlyPrecipIn,Conditions,Clouds,dailyrainin,SoftwareType,DateUTC
2013-05-25 00:05:00,52.8,43.3,30.38,NE,48,1.6,3.0,62,0.00,NA,NA,0.00,meteo_script,2013-05-25 05:05:00,
2013-05-25 00:35:00,52.1,42.6,30.37,ENE,72,0.4,2.0,62,0.00,NA,NA,0.00,meteo_script,2013-05-25 05:35:00,
2013-05-25 01:05:00,51.5,41.8,30.36,ESE,113,1.4,3.0,61,0.00,NA,NA,0.00,meteo_script,2013-05-25 06:05:00,
2013-05-25 01:35:00,51.1,41.7,30.34,South,170,1.7,3.0,62,0.00,NA,NA,0.00,meteo_script,2013-05-25 06:35:00,
2013-05-25 02:05:00,50.4,41.3,30.36,North,0,0.0,0.0,63,0.00,NA,NA,0.00,meteo_script,2013-05-25 07:05:00,
2013-05-25 02:35:00,50.3,41.6,30.37,South,171,0.1,1.0,64,0.00,NA,NA,0.00,meteo_script,2013-05-25 07:35:00,
2013-05-25 03:05:00,49.9,41.2,30.37,SSE,165,0.6,2.0,64,0.00,NA,NA,0.00,meteo_script,2013-05-25 08:05:00,
2013-05-25 03:35:00,49.6,40.9,30.36,ESE,108,0.4,3.0,64,0.00,NA,NA,0.00,meteo_script,2013-05-25 08:35:00,
2013-05-25 04:05:00,49.2,39.9,30.36,NE,46,0.3,2.0,62,0.00,NA,NA,0.00,meteo_script,2013-05-25 09:05:00,
2013-05-25 04:35:00,49.0,38.8,30.36,South,184,1.7,5.0,59,0.00,NA,NA,0.00,meteo_script,2013-05-25 09:35:00,
2013-05-25 05:05:00,48.8,38.9,30.38,North,0,0.0,0.0,60,0.00,NA,NA,0.00,meteo_script,2013-05-25 10:05:00,
2013-05-25 05:35:00,48.3,40.0,30.37,SW,229,0.3,1.0,65,0.02,NA,NA,0.01,meteo_script,2013-05-25 10:35:00,
2013-05-25 06:05:00,47.1,40.8,30.39,North,0,0.0,0.0,72,0.02,NA,NA,0.02,meteo_script,2013-05-25 11:05:00,
2013-05-25 06:35:00,46.6,41.3,30.40,SW,229,0.7,2.0,76,0.02,NA,NA,0.03,meteo_script,2013-05-25 11:35:00,
2013-05-25 07:05:00,46.4,41.1,30.40,SW,229,0.3,1.0,75,0.02,NA,NA,0.04,meteo_script,2013-05-25 12:05:00,
2013-05-25 07:35:00,46.4,41.3,30.42,SW,229,0.4,3.0,76,0.02,NA,NA,0.05,meteo_script,2013-05-25 12:35:00,
2013-05-25 08:05:00,46.5,41.4,30.42,SW,229,0.0,1.0,77,0.02,NA,NA,0.06,meteo_script,2013-05-25 13:05:00,
2013-05-25 08:35:00,46.9,40.8,30.42,SW,221,0.8,3.0,73,0.00,NA,NA,0.06,meteo_script,2013-05-25 13:35:00,
2013-05-25 09:05:00,47.3,40.9,30.43,SSW,213,1.0,3.0,72,0.00,NA,NA,0.06,meteo_script,2013-05-25 14:05:00,
2013-05-25 09:35:00,48.2,41.0,30.42,SW,214,2.0,5.0,69,0.00,NA,NA,0.06,meteo_script,2013-05-25 14:35:00,
2013-05-25 10:05:00,49.0,41.5,30.42,North,0,0.0,0.0,68,0.00,NA,NA,0.06,meteo_script,2013-05-25 15:05:00,
2013-05-25 10:35:00,50.0,41.3,30.41,North,0,0.0,0.0,64,0.00,NA,NA,0.06,meteo_script,2013-05-25 15:35:00,
2013-05-25 11:05:00,50.8,42.1,30.41,SW,215,0.3,1.0,64,0.00,NA,NA,0.06,meteo_script,2013-05-25 16:05:00,
2013-05-25 11:35:00,51.9,42.5,30.40,South,188,0.6,3.0,62,0.00,NA,NA,0.06,meteo_script,2013-05-25 16:35:00,
2013-05-25 12:05:00,53.7,42.4,30.40,NE,54,0.4,2.0,56,0.00,NA,NA,0.06,meteo_script,2013-05-25 17:05:00,
2013-05-25 12:35:00,55.6,42.1,30.41,SSE,149,0.4,2.0,50,0.00,NA,NA,0.06,meteo_script,2013-05-25 17:35:00,
2013-05-25 13:05:00,57.2,42.0,30.38,NE,56,0.2,1.0,47,0.00,NA,NA,0.06,meteo_script,2013-05-25 18:05:00,
2013-05-25 13:35:00,58.4,40.8,30.36,East,89,1.7,8.0,41,0.00,NA,NA,0.06,meteo_script,2013-05-25 18:35:00,
2013-05-25 14:05:00,59.2,41.3,30.36,NE,53,0.7,2.0,41,0.00,NA,NA,0.06,meteo_script,2013-05-25 19:05:00,
2013-05-25 14:35:00,58.5,41.3,30.36,ENE,62,0.9,4.0,42,0.00,NA,NA,0.06,meteo_script,2013-05-25 19:35:00,
2013-05-25 15:05:00,57.3,41.7,30.37,North,0,0.0,0.0,46,0.00,NA,NA,0.06,meteo_script,2013-05-25 20:05:00,
2013-05-25 15:35:00,57.2,42.4,30.38,South,185,0.4,2.0,48,0.00,NA,NA,0.06,meteo_script,2013-05-25 20:35:00,
2013-05-25 16:05:00,57.8,43.0,30.36,SSE,159,0.0,1.0,48,0.00,NA,NA,0.06,meteo_script,2013-05-25 21:05:00,
2013-05-25 16:35:00,58.0,43.2,30.37,North,0,0.0,0.0,48,0.00,NA,NA,0.06,meteo_script,2013-05-25 21:35:00,
2013-05-25 17:05:00,58.6,44.0,30.36,South,173,0.0,1.0,48,0.00,NA,NA,0.06,meteo_script,2013-05-25 22:05:00,
2013-05-25 17:35:00,59.2,44.3,30.36,North,0,0.0,0.0,48,0.00,NA,NA,0.06,meteo_script,2013-05-25 22:35:00,
2013-05-25 18:05:00,59.1,41.7,30.35,ESE,114,0.9,4.0,42,0.00,NA,NA,0.06,meteo_script,2013-05-25 23:05:00,
2013-05-25 18:35:00,58.8,41.1,30.34,North,0,0.0,0.0,41,0.00,NA,NA,0.06,meteo_script,2013-05-25 23:35:00,
2013-05-25 19:05:00,58.3,41.3,30.33,SE,144,0.1,1.0,43,0.00,NA,NA,0.06,meteo_script,2013-05-26 00:05:00,
2013-05-25 19:35:00,58.1,41.6,30.33,North,0,0.0,0.0,44,0.00,NA,NA,0.06,meteo_script,2013-05-26 00:35:00,
2013-05-25 20:05:00,57.5,42.1,30.33,North,0,0.0,0.0,46,0.00,NA,NA,0.06,meteo_script,2013-05-26 01:05:00,
2013-05-25 20:35:00,56.8,41.3,30.33,SE,127,0.0,1.0,46,0.00,NA,NA,0.06,meteo_script,2013-05-26 01:35:00,
2013-05-25 21:05:00,56.1,41.8,30.33,North,0,0.0,0.0,49,0.00,NA,NA,0.06,meteo_script,2013-05-26 02:05:00,
2013-05-25 21:35:00,55.5,42.0,30.33,North,0,0.0,0.0,51,0.00,NA,NA,0.06,meteo_script,2013-05-26 02:35:00,
2013-05-25 22:05:00,55.2,41.8,30.35,North,0,0.0,0.0,51,0.00,NA,NA,0.06,meteo_script,2013-05-26 03:05:00,
2013-05-25 22:35:00,54.9,41.9,30.34,North,0,0.0,0.0,52,0.00,NA,NA,0.06,meteo_script,2013-05-26 03:35:00,
2013-05-25 23:05:00,54.5,41.9,30.34,North,0,0.0,0.0,53,0.00,NA,NA,0.06,meteo_script,2013-05-26 04:05:00,
2013-05-25 23:35:00,53.9,42.2,30.34,North,0,0.0,0.0,55,0.00,NA,NA,0.06,meteo_script,2013-05-26 04:35:00,